[[{"header":{"parameterUnit":"m.s-1","parameterCategory":1,"la1":30.2991,"la2":30.254,"lo1":-89.0895,"lo2":-89.0444,"dy":0.0017,"dx":0.0017,"nx":28,"ny":28,"refTime":"2023-08-19T03:00:00:Z","depth":0,"parameterNumber":2,"parameterNumberName":"U-component_of_WINDS"},"data":[0,0,0,0,0,0,0,0,0,0,0,0,0,0,0,0,0,0,0,0,0,0,0,0,0,0,0,0,0,0,0,0,0,0,0,0,0,0,0,0,0,0,0,0,0,0,0,0,0,0,0,0,0,0,0,0,0,0,-1.2162,-1.2162,0,-1.2214,-1.2215,-1.2215,-1.2257,-1.2258,-1.2258,-1.2259,-1.2312,-1.2313,-1.2314,0,0,0,0,0,0,0,0,0,0,0,0,0,-1.2096,-1.2097,-1.2162,-1.2162,-1.2163,-1.2214,-1.2215,-1.2216,-1.2257,-1.2258,-1.2258,-1.2259,-1.2311,-1.2313,-1.2314,0,0,0,0,0,0,0,0,0,0,0,0,0,-1.2134,-1.2098,-1.2162,-1.219,-1.2193,-1.2214,-1.2215,-1.2216,-1.2257,-1.2258,-1.2259,-1.2259,-1.2311,-1.2312,-1.2314,-1.2311,0,0,-1.2319,-1.2319,0,0,0,0,0,0,0,0,-1.2132,-1.2137,-1.2185,-1.2188,-1.2192,-1.223,-1.2211,-1.2248,-1.2257,-1.2233,-1.2259,-1.2259,-1.2284,-1.2288,-1.2296,-1.2313,-1.2315,-1.2319,-1.232,-1.232,-1.2321,0,0,0,0,0,0,0,-1.2129,-1.2135,-1.2182,-1.2186,-1.219,-1.22,-1.2206,-1.2218,-1.2254,-1.2235,-1.2238,-1.2244,-1.2286,-1.2295,-1.2298,-1.2316,-1.2319,-1.232,-1.2321,-1.2322,-1.2332,-1.2332,0,0,0,0,0,0,-1.2123,-1.2132,-1.2181,-1.2184,-1.2163,-1.22,-1.2207,-1.2217,-1.2254,-1.226,-1.2243,-1.2246,-1.2292,-1.2296,-1.23,-1.2298,-1.232,-1.2322,-1.2323,-1.2333,-1.2332,-1.2331,0,0,0,0,0,0,-1.2121,-1.2127,-1.2179,-1.2159,-1.2166,-1.2201,-1.2211,-1.2218,-1.2227,-1.226,-1.2267,-1.2246,-1.2292,-1.2298,-1.2307,-1.23,-1.2322,-1.2324,-1.2334,-1.2333,-1.2332,-1.2294,0,0,0,0,0,0,-1.2119,-1.2126,-1.2125,-1.2159,-1.2167,-1.2186,-1.2211,-1.2218,-1.2229,-1.2233,-1.2264,-1.227,-1.2293,-1.2305,-1.2309,-1.2303,-1.2325,-1.2334,-1.2333,-1.2332,-1.2296,-1.2292,-1.2288,0,0,0,0,0,-1.2116,-1.2112,-1.2125,-1.213,-1.2167,-1.2185,-1.219,-1.2217,-1.2228,-1.2228,-1.2249,-1.2269,-1.23,-1.2306,-1.231,-1.2305,-1.2335,-1.2334,-1.2332,-1.2298,-1.2293,-1.2288,0,0,0,0,0,0,-1.2077,-1.2117,-1.2132,-1.2138,-1.2158,-1.2192,-1.2192,-1.2211,-1.2227,-1.223,-1.2262,-1.2269,-1.2275,-1.2291,-1.2296,-1.2303,-1.232,-1.232,-1.2292,-1.2288,-1.2284,-1.228,-1.2326,0,0,0,0,0,-1.2068,-1.208,-1.2115,-1.2117,-1.2126,-1.2158,-1.2166,-1.2185,-1.2207,-1.2215,-1.2238,-1.2258,-1.2272,-1.2281,-1.2296,-1.2299,-1.2306,-1.2297,-1.2293,-1.229,-1.2289,-1.2291,-1.2287,-1.2327,-1.2327,-1.2327,0,0,-1.2052,-1.2076,-1.2081,-1.211,-1.2127,-1.2138,-1.2164,-1.2175,-1.2183,-1.2217,-1.2228,-1.2245,-1.2269,-1.2275,-1.2279,-1.2289,-1.2279,-1.2288,-1.2285,-1.2286,-1.2289,-1.2285,-1.2282,-1.2326,-1.2326,-1.2326,0,0,-1.2027,-1.2047,-1.2051,-1.2068,-1.2094,-1.2115,-1.2115,-1.2147,-1.216,-1.2171,-1.2197,-1.2207,-1.2231,-1.2247,-1.2259,-1.224,-1.2258,-1.2244,-1.2223,-1.2225,-1.2222,-1.2219,-1.2212,-1.2209,-1.2243,-1.2243,-1.2242,0,-1.2003,-1.2021,-1.205,-1.2059,-1.2071,-1.2102,-1.2106,-1.2121,-1.2151,-1.2158,-1.2168,-1.2199,-1.2218,-1.2228,-1.2223,-1.2231,-1.2233,-1.224,-1.222,-1.2218,-1.2215,-1.2209,-1.2206,-1.2241,-1.2241,-1.2241,-1.2241,0,-1.199,-1.2002,-1.2002,-1.203,-1.2041,-1.2048,-1.2077,-1.2086,-1.2103,-1.2123,-1.2134,-1.2157,-1.2177,-1.2181,-1.2199,-1.2193,-1.2199,-1.2214,-1.2232,-1.2209,-1.2204,-1.2201,-1.2238,-1.2238,-1.2239,-1.2239,0,0,-1.1941,-1.1985,-1.1985,-1.1998,-1.2029,-1.2039,-1.2046,-1.2066,-1.2072,-1.2092,-1.2098,-1.2118,-1.2132,-1.2145,-1.2165,-1.2166,-1.2149,-1.2181,-1.2182,-1.2174,-1.2144,-1.2132,-1.2129,-1.2162,-1.2161,-1.2161,-1.2142,0,-1.1921,-1.1937,-1.1963,-1.197,-1.1981,-1.2011,-1.2017,-1.2037,-1.2055,-1.2067,-1.2087,-1.21,-1.2118,-1.2126,-1.2129,-1.215,-1.2143,-1.2152,-1.2168,-1.2168,-1.216,-1.2126,-1.2113,-1.2094,-1.214,-1.214,-1.2139,0,-1.19,-1.1918,-1.1925,-1.1956,-1.1961,-1.1967,-1.1987,-1.1998,-1.202,-1.2034,-1.2048,-1.2069,-1.2078,-1.2095,-1.2107,-1.2113,-1.2121,-1.2132,-1.2132,-1.2134,-1.2152,-1.2127,-1.2089,-1.2085,-1.2136,-1.2137,-1.2137,0,-1.1863,-1.1889,-1.1897,-1.1907,-1.1943,-1.1945,-1.196,-1.1984,-1.1994,-1.2012,-1.2018,-1.2037,-1.2047,-1.206,-1.2086,-1.2095,-1.2095,-1.2114,-1.2106,-1.2105,-1.2104,-1.2104,-1.2067,-1.211,-1.211,-1.211,-1.211,0,-1.1837,-1.1841,-1.1881,-1.1885,-1.189,-1.192,-1.1924,-1.1941,-1.1962,-1.197,-1.1998,-1.2005,-1.2039,-1.205,-1.207,-1.2077,-1.2081,-1.2092,-1.2097,-1.2089,-1.2088,-1.2094,-1.2096,-1.2109,-1.211,-1.211,-1.211,0,-1.1796,-1.1823,-1.1834,-1.1867,-1.1875,-1.1877,-1.1905,-1.1911,-1.1931,-1.1941,-1.1945,-1.1976,-1.1991,-1.2018,-1.204,-1.2053,-1.2056,-1.2065,-1.2048,-1.2051,-1.2042,-1.2042,-1.2007,-1.2004,-1.2049,-1.2049,-1.2048,0,-1.1778,-1.1781,-1.1815,-1.1823,-1.1836,-1.1849,-1.1859,-1.1889,-1.1899,-1.1925,-1.1927,-1.1944,-1.1959,-1.198,-1.2005,-1.2021,-1.2031,-1.2018,-1.2034,-1.2026,-1.203,-1.203,-1.203,-1.2014,-1.2013,-1.2013,-1.2012,0,-1.1742,-1.1755,-1.177,-1.1789,-1.1801,-1.1817,-1.1835,-1.1839,-1.1873,-1.1883,-1.1898,-1.1909,-1.1932,-1.1948,-1.1968,-1.1983,-1.2003,-1.2007,-1.2006,-1.1998,-1.1988,-1.1993,-1.2038,-1.2008,-1.2008,-1.2009,-1.2009,-1.2009,-1.1712,-1.1716,-1.174,-1.1755,-1.1772,-1.1788,-1.1794,-1.1815,-1.1829,-1.1849,-1.1866,-1.188,-1.1902,-1.1932,-1.1946,-1.1957,-1.1966,-1.1965,-1.1964,-1.1963,-1.196,-1.1986,-1.1961,-1.1961,-1.1961,-1.1961,-1.1961,0,-1.1677,-1.1694,-1.1708,-1.1732,-1.1743,-1.1762,-1.1782,-1.179,-1.1802,-1.1822,-1.1836,-1.1853,-1.1869,-1.1894,-1.1912,-1.1916,-1.1925,-1.1919,-1.1919,-1.1922,-1.1951,-1.195,-1.1911,-1.1911,-1.1911,-1.1911,-1.1911,-1.1911,-1.166,-1.1669,-1.1684,-1.1701,-1.1718,-1.1732,-1.1742,-1.1756,-1.1772,-1.179,-1.1803,-1.182,-1.1842,-1.1862,-1.1877,-1.1884,-1.1889,-1.188,-1.189,-1.1916,-1.192,-1.1925,-1.1924,-1.1881,-1.1881,-1.186,-1.186,-1.186]},{"header":{"parameterUnit":"m.s-1","parameterCategory":1,"la1":30.2991,"la2":30.254,"lo1":-89.0895,"lo2":-89.0444,"dy":0.0017,"dx":0.0017,"nx":28,"ny":28,"refTime":"2023-08-19T03:00:00:Z","depth":0,"parameterNumber":3,"parameterNumberName":"V-component_of_WINDS"},"data":[0,0,0,0,0,0,0,0,0,0,0,0,0,0,0,0,0,0,0,0,0,0,0,0,0,0,0,0,0,0,0,0,0,0,0,0,0,0,0,0,0,0,0,0,0,0,0,0,0,0,0,0,0,0,0,0,0,0,-1.1392,-1.1392,0,-1.1388,-1.1388,-1.1388,-1.136,-1.1359,-1.1358,-1.1358,-1.1354,-1.1354,-1.1355,0,0,0,0,0,0,0,0,0,0,0,0,0,-1.1378,-1.1379,-1.1392,-1.1392,-1.1392,-1.1388,-1.1388,-1.1388,-1.136,-1.1359,-1.1358,-1.1357,-1.1354,-1.1354,-1.1355,0,0,0,0,0,0,0,0,0,0,0,0,0,-1.138,-1.1379,-1.1392,-1.1378,-1.1376,-1.1388,-1.1388,-1.1388,-1.136,-1.1359,-1.1358,-1.1357,-1.1353,-1.1354,-1.1355,-1.1381,0,0,-1.1358,-1.1358,0,0,0,0,0,0,0,0,-1.138,-1.1381,-1.138,-1.1379,-1.1377,-1.1373,-1.1381,-1.1385,-1.136,-1.1366,-1.1357,-1.1356,-1.1361,-1.1361,-1.1363,-1.1381,-1.138,-1.1358,-1.1358,-1.1359,-1.1359,0,0,0,0,0,0,0,-1.138,-1.1381,-1.1391,-1.138,-1.1378,-1.1372,-1.1371,-1.1382,-1.137,-1.1365,-1.1363,-1.1363,-1.136,-1.1362,-1.1362,-1.138,-1.1358,-1.1358,-1.1359,-1.1359,-1.1421,-1.1423,0,0,0,0,0,0,-1.1382,-1.1381,-1.1391,-1.139,-1.1376,-1.1373,-1.1372,-1.1376,-1.1369,-1.1367,-1.1364,-1.1362,-1.1361,-1.1362,-1.1362,-1.1394,-1.1359,-1.1359,-1.136,-1.142,-1.1422,-1.1423,0,0,0,0,0,0,-1.1381,-1.1383,-1.1391,-1.1385,-1.1386,-1.1374,-1.1378,-1.1376,-1.1378,-1.1368,-1.1366,-1.1368,-1.136,-1.1361,-1.1377,-1.1393,-1.136,-1.136,-1.1419,-1.1421,-1.1422,-1.1456,0,0,0,0,0,0,-1.1381,-1.1383,-1.1392,-1.1385,-1.1386,-1.1405,-1.1379,-1.1377,-1.1379,-1.1376,-1.1371,-1.137,-1.136,-1.1376,-1.1378,-1.1394,-1.1361,-1.1417,-1.142,-1.1422,-1.1453,-1.1458,-1.1463,0,0,0,0,0,-1.1381,-1.1401,-1.1393,-1.1394,-1.1397,-1.1406,-1.1406,-1.1394,-1.138,-1.139,-1.1384,-1.137,-1.1391,-1.1378,-1.1379,-1.1396,-1.1416,-1.1419,-1.1422,-1.1451,-1.1457,-1.1463,0,0,0,0,0,0,-1.141,-1.14,-1.139,-1.1409,-1.1409,-1.1401,-1.1413,-1.1401,-1.1404,-1.1402,-1.1386,-1.1386,-1.1404,-1.1401,-1.1387,-1.1422,-1.1401,-1.1404,-1.1423,-1.1429,-1.1434,-1.1434,-1.1362,0,0,0,0,0,-1.1418,-1.1426,-1.1417,-1.1435,-1.1435,-1.1424,-1.1427,-1.1418,-1.1417,-1.1417,-1.1412,-1.1412,-1.1419,-1.1423,-1.1429,-1.1452,-1.1452,-1.1465,-1.1469,-1.1473,-1.1477,-1.1491,-1.1497,-1.1432,-1.1432,-1.1431,0,0,-1.1436,-1.1432,-1.1438,-1.1441,-1.1439,-1.1448,-1.1424,-1.1434,-1.1441,-1.1418,-1.1433,-1.143,-1.1429,-1.1449,-1.1458,-1.1448,-1.1495,-1.1477,-1.148,-1.1481,-1.1494,-1.15,-1.1506,-1.1433,-1.1433,-1.1433,0,0,-1.1474,-1.1471,-1.1486,-1.1485,-1.1483,-1.1476,-1.148,-1.1475,-1.1472,-1.1486,-1.147,-1.1478,-1.1489,-1.149,-1.1492,-1.1531,-1.1519,-1.1534,-1.1559,-1.1573,-1.1579,-1.1583,-1.1599,-1.1605,-1.1537,-1.1537,-1.1537,0,-1.1497,-1.1509,-1.1495,-1.1507,-1.151,-1.149,-1.1506,-1.1506,-1.1506,-1.1508,-1.1497,-1.1512,-1.1509,-1.1531,-1.154,-1.1542,-1.1547,-1.1534,-1.1579,-1.1583,-1.1587,-1.1602,-1.1608,-1.1539,-1.1538,-1.1538,-1.1538,0,-1.1538,-1.1547,-1.156,-1.1561,-1.1565,-1.1579,-1.1568,-1.1573,-1.1564,-1.1559,-1.1575,-1.1572,-1.1577,-1.1581,-1.1572,-1.1601,-1.1595,-1.1581,-1.1561,-1.1596,-1.161,-1.1615,-1.1541,-1.1541,-1.154,-1.154,0,0,-1.1594,-1.1588,-1.1593,-1.1594,-1.1591,-1.1598,-1.1612,-1.1617,-1.1623,-1.1624,-1.1636,-1.1647,-1.1635,-1.1637,-1.1628,-1.164,-1.1674,-1.1624,-1.1624,-1.1635,-1.1708,-1.172,-1.1727,-1.1665,-1.1666,-1.1667,-1.1709,0,-1.1631,-1.1654,-1.1643,-1.1667,-1.1677,-1.1658,-1.167,-1.167,-1.1666,-1.1674,-1.1668,-1.1677,-1.1659,-1.1661,-1.1672,-1.1667,-1.1688,-1.1664,-1.1677,-1.1678,-1.168,-1.1734,-1.1746,-1.1786,-1.1714,-1.1715,-1.1716,0,-1.1678,-1.1682,-1.1707,-1.1705,-1.1708,-1.1719,-1.1724,-1.1731,-1.1732,-1.1727,-1.1731,-1.1719,-1.1733,-1.1712,-1.1733,-1.1716,-1.1721,-1.172,-1.1721,-1.1723,-1.17,-1.1739,-1.1798,-1.1805,-1.1724,-1.1723,-1.1723,0,-1.1718,-1.1729,-1.1747,-1.1748,-1.1745,-1.1753,-1.1752,-1.1752,-1.1756,-1.1761,-1.1764,-1.177,-1.1773,-1.1779,-1.1769,-1.1754,-1.1792,-1.1769,-1.179,-1.179,-1.1799,-1.1799,-1.1862,-1.18,-1.18,-1.18,-1.18,0,-1.1762,-1.1779,-1.1765,-1.1776,-1.1795,-1.1782,-1.1801,-1.1798,-1.1798,-1.1809,-1.1793,-1.1803,-1.179,-1.1799,-1.1792,-1.1811,-1.1812,-1.1811,-1.1809,-1.1813,-1.1813,-1.1817,-1.1814,-1.1802,-1.1801,-1.1801,-1.1801,0,-1.1811,-1.1802,-1.182,-1.1816,-1.1815,-1.1829,-1.1826,-1.1836,-1.1831,-1.1845,-1.1847,-1.1839,-1.185,-1.1841,-1.1851,-1.1846,-1.1872,-1.1865,-1.1872,-1.1871,-1.1892,-1.1891,-1.1961,-1.197,-1.1901,-1.1901,-1.1902,0,-1.184,-1.1853,-1.185,-1.1856,-1.1856,-1.1866,-1.1871,-1.1859,-1.1865,-1.1867,-1.1878,-1.1887,-1.1894,-1.1912,-1.1907,-1.1915,-1.191,-1.1933,-1.1911,-1.1915,-1.1912,-1.1912,-1.1914,-1.1938,-1.1939,-1.194,-1.194,0,-1.1893,-1.1889,-1.1896,-1.1903,-1.1909,-1.1914,-1.1917,-1.1923,-1.1911,-1.1919,-1.1929,-1.1935,-1.1946,-1.1956,-1.1962,-1.1962,-1.195,-1.1948,-1.1953,-1.1958,-1.1962,-1.1962,-1.1886,-1.1946,-1.1946,-1.1945,-1.1945,-1.1945,-1.1934,-1.1945,-1.1946,-1.1955,-1.1957,-1.1961,-1.1971,-1.1967,-1.1976,-1.1984,-1.1976,-1.199,-1.1991,-1.1999,-1.2001,-1.2012,-1.2002,-1.2009,-1.2011,-1.2014,-1.2018,-1.1959,-1.2012,-1.2012,-1.2012,-1.2012,-1.2012,0,-1.1988,-1.1988,-1.1997,-1.2003,-1.201,-1.1998,-1.2001,-1.2009,-1.2021,-1.2023,-1.2031,-1.2044,-1.2054,-1.2051,-1.206,-1.2069,-1.2064,-1.2072,-1.2072,-1.2073,-1.2025,-1.202,-1.2077,-1.2077,-1.2077,-1.2077,-1.2077,-1.2077,-1.2018,-1.2037,-1.2033,-1.2053,-1.2052,-1.2065,-1.2069,-1.2073,-1.2075,-1.2091,-1.2099,-1.2096,-1.2097,-1.2106,-1.2115,-1.2114,-1.2119,-1.2129,-1.2126,-1.2082,-1.2076,-1.207,-1.2065,-1.213,-1.213,-1.2173,-1.2174,-1.2174]}]]